METEOR 2-17 DEB, 38656

Orbit data source: Space-Track

METEOR 2-17 DEB, 38656 is space debris in LEO originally from a launch on Sat, 30 Jan 1988 UTC launched from the Plesetsk Missile And Space Complex (PKMTR). Debris objects in space refer to the collection of defunct objects orbiting the Earth. Examples of debris include non-operational satellites, rocket bodies, and fragments generated from explosions, collisions, or faulty payload assembly.

Loading next visibility...
Identifier
38656, 1988-005AZ
Orbit
LEO
Country
Flag of CISCIS
Related business
Manufacturer
Unknown
Mission
Spacecraft
Bus & Motor
Unknown
Mass
Unknown
Launch date (UTC)
1988-01-30 (38 years ago)
Launch vehicle
Unknown
Launch site
Plesetsk Missile And Space Complex (PKMTR)
Object type
Payload
Rocket body
Debris
Shape & HBR
Unknown shape, 0.1 m
Radar Cross Section
Small (<0.1 m²)

Expand to show TLE details & history
Last TLE update: 4 days ago

TLE from 4 days ago
0 METEOR 2-17 DEB
1 38656U 88005AZ  25303.05759335  .00004177  00000-0  26001-2 0  9999
2 38656  82.5199  60.7851 0018217 205.0642 154.9647 14.04633693594215
Epoch: 2025-10-30T01:22Z
TLE epoch observation values (Epoch: 2025-10-30T01:22:56.065Z)
Latitude
-0.00003°
Longitude
1.42965°
Altitude
892.706 km
Speed
7.4 km/s
True Right ascension
04h 03m 08s
True Declination
0° 00' 00"
Sunlit
Object was in full shadow at epoch
Visualization orbit readout
Latitude
Unknown
Longitude
Unknown
Altitude
Unknown
Speed
Unknown
Apparent Right ascension
Unknown
Apparent Declination
Unknown
Sunlit
N/A
Visualization observer readout
Local Sidereal Time
23:52:35
Azimuth
Unknown
Elevation
Unknown
Doppler factor
Unknown
Orbital elements
Apogee altitude
888.131 km
Perigee altitude
861.705 km
Semi-major axis
7,253.055 km
Eccentricity
0.00182
Inclination
82.5199°
RAAN
60.7851°
Arg. of periapsis
205.0642°
True anomaly
155.05286°
Mean anomaly
154.9647°
Eccentric anomaly
155.0088°
Mean motion
3.51368 °/min
Orbital period
102.46 mins
BSTAR
0.0026001
Loading maneuver chart data...
Computing Atmospheric mass density...
Loading historical data...
Loading historical data...
Loading historical data...
Loading historical data...
Loading historical data...
Loading historical data...
Loading historical data...

Documentation

Showing up to 5 results
|